sat.trackr.live / text

‹ back to catalog

SWARM C

NORAD 39453 · 2013-067C

PAYLOAD ACTIVE UNKNOWN

§ Identity

Operator
Country
ESA
Launch date
2013-11-22
Launch site
PLMSC
Launch vehicle
Mass (kg)
RCS (m²)
2.37

Purposes: science

External: N2YO · Heavens-Above · Gunter

§ Orbital elements

Epoch: 2026-05-25T04:21:21.517056Z

Period
92.88 min
Inclination
87.3333°
Eccentricity
0.0003193
Mean motion
15.50423306 rev/d
Perigee alt
413.3 km
Apogee alt
417.7 km
Semi-major
6,793.6 km
B*
1.8380e-4
RAAN
63.3630°
Arg perigee
85.6953°
Mean anomaly
274.4673°
Rev number
70,264

§ Raw data

SWARM C1 39453U 13067C   26145.18149904  .00010491  00000+0  18380-3 0  99922 39453  87.3333  63.3630 0003193  85.6953 274.4673 15.50423306702647

JSON: /api/v1/satellites/39453 · /tle

For live sub-satellite position, see the globe view (requires WebGL).

§ Visibility from observer

Set your observer location to see the next 7 days of passes ≥ 10°. The values pass through the URL so the page stays shareable.

No JS? Fill the form by hand. The geolocation button needs JavaScript.

§ Radio — SatNOGS DB

ModeDescriptionDownlinkUplink
FM S-Band (2277MHz) 2.277 GHz

1 transmitter · refreshed weekly from db.satnogs.org